logo
Search for airport 
image banner adimage banner adimage banner ad
image banner ad

VT70 - North Country Hospital

Located in Newport, United States

ICAO - VT70, IATA -

Data provided by Airmate  

General information

Coordinates: N44°57'22" W72°11'58"
Elevation is 690 feet MSL.
Magnetic variation is -16° East
View others Airports in Vermont

Operational data

Special qualification required
Current time UTC:
Current local time:
Weather at : KEFK - Northeast Kingdom Intl ( 8 km )
METAR: KEFK 220815Z AUTO 17004KT 10SM SCT055 BKN075 BKN090 17/16 A2989 RMK AO2 T01710160
TAF: KEFK 220539Z 2206/2306 17005KT P6SM OVC100 FM221300 22007KT P6SM SCT080 FM222300 VRB03KT P6SM BKN070
View NOTAMs / SUP AIP / TFR affecting this airport [VIEW]
Communications frequencies: [VIEW]

Runways:

RWY identifierQFULength (ft)Width (ft)SurfaceLDA (ft)
H15050ASPH/ CONC
5050ASPH/ CONC

Airport contact information

Address: Newport United States

Satellite view of VT70